| time (UTC) | temp F | wind direction | speed MPH | gust MPH | rain 1hr in | rain 24hr in | rain mn in | humidity % | barometer mb |
| 20260510212742 | 53 | 25 | 7.0 | 10.0 | 0.00 | 0.00 | 0.00 | 84 | 1008.8 |
| 20260510211541 | 54 | 23 | 8.0 | 9.0 | 0.00 | 0.00 | 0.00 | 83 | 1008.8 |
| 20260510210340 | 54 | 23 | 8.0 | 9.0 | 0.00 | 0.00 | 0.00 | 82 | 1008.8 |
| 20260510205158 | 54 | 40 | 11.0 | 16.0 | 0.00 | 0.00 | 0.00 | 82 | 1008.8 |
| 20260510203937 | 54 | 39 | 12.0 | 16.0 | 0.00 | 0.00 | 0.00 | 82 | 1008.8 |
| 20260510202756 | 55 | 12 | 14.0 | 16.0 | 0.00 | 0.00 | 0.00 | 81 | 1008.8 |
| 20260510201535 | 55 | 26 | 11.0 | 13.0 | 0.00 | 0.00 | 0.00 | 81 | 1008.8 |
| 20260510200334 | 55 | 37 | 9.0 | 15.0 | 0.00 | 0.00 | 0.00 | 81 | 1008.8 |
| 20260510195133 | 55 | 59 | 11.0 | 17.0 | 0.00 | 0.00 | 0.00 | 81 | 1008.8 |
| 20260510193952 | 56 | 28 | 9.0 | 12.0 | 0.00 | 0.00 | 0.00 | 81 | 1008.8 |
| 20260510192751 | 56 | 27 | 8.0 | 11.0 | 0.00 | 0.00 | 0.00 | 80 | 1008.8 |
| 20260510191530 | 57 | 18 | 11.0 | 13.0 | 0.00 | 0.00 | 0.00 | 79 | 1008.8 |
| 20260510190329 | 57 | 26 | 11.0 | 16.0 | 0.00 | 0.00 | 0.00 | 79 | 1008.8 |
| 20260510185127 | 58 | 23 | 12.0 | 16.0 | 0.00 | 0.00 | 0.00 | 78 | 1008.8 |
| 20260510183926 | 58 | 23 | 9.0 | 15.0 | 0.00 | 0.00 | 0.00 | 77 | 1008.8 |
| 20260510182725 | 59 | 23 | 9.0 | 14.0 | 0.00 | 0.00 | 0.00 | 77 | 1008.8 |
| 20260510181524 | 59 | 5 | 12.0 | 15.0 | 0.00 | 0.00 | 0.00 | 76 | 1008.8 |
| 20260510180323 | 60 | 19 | 15.0 | 17.0 | 0.00 | 0.00 | 0.00 | 75 | 1008.8 |
| 20260510175122 | 60 | 23 | 11.0 | 16.0 | 0.00 | 0.00 | 0.00 | 74 | 1008.8 |
| 20260510173921 | 61 | 45 | 10.0 | 16.0 | 0.00 | 0.00 | 0.00 | 73 | 1008.8 |
| 20260510172719 | 62 | 28 | 8.0 | 11.0 | 0.00 | 0.00 | 0.00 | 72 | 1008.8 |
| 20260510171538 | 62 | 13 | 12.0 | 15.0 | 0.00 | 0.00 | 0.00 | 71 | 1008.8 |
| 20260510170317 | 63 | 35 | 11.0 | 18.0 | 0.00 | 0.00 | 0.00 | 70 | 1008.8 |
| 20260510165136 | 64 | 10 | 9.0 | 10.0 | 0.00 | 0.00 | 0.00 | 69 | 1008.8 |
| 20260510163935 | 64 | 23 | 10.0 | 12.0 | 0.00 | 0.00 | 0.00 | 69 | 1008.8 |
| 20260510162814 | 65 | 23 | 9.0 | 16.0 | 0.00 | 0.00 | 0.00 | 67 | 1008.8 |
| 20260510161613 | 65 | 17 | 9.0 | 15.0 | 0.00 | 0.00 | 0.00 | 67 | 1008.8 |
| 20260510160412 | 66 | 8 | 10.0 | 13.0 | 0.00 | 0.00 | 0.00 | 65 | 1008.8 |
| 20260510155210 | 67 | 23 | 8.0 | 13.0 | 0.00 | 0.00 | 0.00 | 64 | 1008.8 |
| 20260510154009 | 67 | 26 | 9.0 | 11.0 | 0.00 | 0.00 | 0.00 | 62 | 1008.8 |
| 20260510152808 | 68 | 63 | 7.0 | 8.0 | 0.00 | 0.00 | 0.00 | 61 | 1008.8 |
| 20260510151627 | 69 | 23 | 10.0 | 16.0 | 0.00 | 0.00 | 0.00 | 59 | 1008.8 |
| 20260510150408 | 69 | 32 | 10.0 | 13.0 | 0.00 | 0.00 | 0.00 | 58 | 1008.8 |
| 20260510145205 | 69 | 6 | 12.0 | 14.0 | 0.00 | 0.00 | 0.00 | 59 | 1008.8 |
| 20260510144004 | 70 | 18 | 11.0 | 23.0 | 0.00 | 0.00 | 0.00 | 58 | 1008.8 |
| 20260510142803 | 70 | 23 | 9.0 | 14.0 | 0.00 | 0.00 | 0.00 | 56 | 1008.8 |
| 20260510141601 | 70 | 38 | 7.0 | 9.0 | 0.00 | 0.00 | 0.00 | 56 | 1008.8 |
| 20260510140400 | 71 | 39 | 6.0 | 14.0 | 0.00 | 0.00 | 0.00 | 55 | 1011.4 |
| 20260510135159 | 70 | 54 | 12.0 | 19.0 | 0.00 | 0.00 | 0.00 | 54 | 1012.2 |
| 20260510133959 | 69 | 32 | 12.0 | 13.0 | 0.00 | 0.00 | 0.00 | 53 | 1012.2 |
| 20260510132758 | 70 | 45 | 13.0 | 16.0 | 0.00 | 0.00 | 0.00 | 52 | 1012.2 |
| 20260510131555 | 70 | 45 | 8.0 | 13.0 | 0.00 | 0.00 | 0.00 | 53 | 1012.2 |
| 20260510130414 | 71 | 58 | 12.0 | 21.0 | 0.00 | 0.00 | 0.00 | 51 | 1012.2 |
| 20260510125153 | 70 | 27 | 13.0 | 16.0 | 0.00 | 0.00 | 0.00 | 52 | 1012.2 |
| 20260510123952 | 70 | 34 | 8.0 | 11.0 | 0.00 | 0.00 | 0.00 | 52 | 1012.2 |
| 20260510122751 | 70 | 52 | 8.0 | 18.0 | 0.00 | 0.00 | 0.00 | 54 | 1012.2 |
| 20260510121550 | 69 | 49 | 14.0 | 18.0 | 0.00 | 0.00 | 0.00 | 53 | 1012.2 |
| 20260510120349 | 69 | 37 | 8.0 | 15.0 | 0.00 | 0.00 | 0.00 | 54 | 1012.2 |
| 20260510115147 | 70 | 62 | 9.0 | 13.0 | 0.00 | 0.00 | 0.00 | 55 | 1012.2 |
| 20260510113947 | 69 | 57 | 13.0 | 19.0 | 0.00 | 0.00 | 0.00 | 55 | 1012.2 |
| 20260510112806 | 68 | 45 | 10.0 | 12.0 | 0.00 | 0.00 | 0.00 | 57 | 1012.2 |
| 20260510111604 | 69 | 45 | 7.0 | 8.0 | 0.00 | 0.00 | 0.00 | 58 | 1012.2 |
| 20260510110404 | 69 | 37 | 8.0 | 14.0 | 0.00 | 0.00 | 0.00 | 57 | 1012.2 |
| 20260510105142 | 69 | 45 | 10.0 | 14.0 | 0.00 | 0.00 | 0.00 | 57 | 1012.2 |
| 20260510103941 | 69 | 39 | 9.0 | 12.0 | 0.00 | 0.00 | 0.00 | 58 | 1012.2 |
| 20260510102739 | 68 | 45 | 6.0 | 10.0 | 0.00 | 0.00 | 0.00 | 59 | 1012.2 |
| 20260510101559 | 67 | 34 | 9.0 | 11.0 | 0.00 | 0.00 | 0.00 | 59 | 1012.2 |
| 20260510100338 | 67 | 38 | 12.0 | 14.0 | 0.00 | 0.00 | 0.00 | 59 | 1012.2 |
| 20260510095136 | 67 | 45 | 16.0 | 17.0 | 0.00 | 0.00 | 0.00 | 61 | 1012.2 |
| 20260510093936 | 66 | 45 | 15.0 | 21.0 | 0.00 | 0.00 | 0.00 | 62 | 1012.2 |
| 20260510092734 | 66 | 45 | 8.0 | 13.0 | 0.00 | 0.00 | 0.00 | 64 | 1012.2 |
| 20260510091532 | 64 | 23 | 7.0 | 11.0 | 0.00 | 0.00 | 0.00 | 66 | 1012.2 |
| 20260510090352 | 63 | 40 | 12.0 | 17.0 | 0.00 | 0.00 | 0.00 | 66 | 1012.2 |
| 20260510085131 | 64 | 23 | 12.0 | 17.0 | 0.00 | 0.00 | 0.00 | 67 | 1012.2 |
| 20260510083930 | 63 | 23 | 7.0 | 11.0 | 0.00 | 0.00 | 0.00 | 68 | 1012.2 |
| 20260510082728 | 62 | 45 | 11.0 | 14.0 | 0.00 | 0.00 | 0.00 | 69 | 1012.2 |
| 20260510081547 | 62 | 45 | 10.0 | 16.0 | 0.00 | 0.00 | 0.00 | 70 | 1012.2 |
| 20260510080326 | 61 | 41 | 11.0 | 13.0 | 0.00 | 0.00 | 0.00 | 71 | 1012.2 |
| 20260510075125 | 61 | 13 | 10.0 | 14.0 | 0.00 | 0.00 | 0.00 | 73 | 1012.2 |
| 20260510073924 | 60 | 45 | 8.0 | 10.0 | 0.00 | 0.00 | 0.00 | 75 | 1012.2 |
| 20260510072722 | 59 | 39 | 12.0 | 16.0 | 0.00 | 0.00 | 0.00 | 78 | 1012.2 |
| 20260510071541 | 58 | 26 | 7.0 | 11.0 | 0.00 | 0.00 | 0.00 | 81 | 1014.8 |
| 20260510070320 | 57 | 45 | 8.0 | 11.0 | 0.00 | 0.00 | 0.00 | 83 | 1015.6 |
| 20260510065119 | 56 | 33 | 11.0 | 15.0 | 0.00 | 0.00 | 0.00 | 86 | 1015.6 |
| 20260510063918 | 55 | 37 | 8.0 | 17.0 | 0.00 | 0.00 | 0.00 | 89 | 1015.6 |
| 20260510062716 | 54 | 45 | 8.0 | 9.0 | 0.00 | 0.00 | 0.00 | 91 | 1013.9 |
| 20260510061515 | 54 | 23 | 8.0 | 14.0 | 0.00 | 0.00 | 0.00 | 92 | 1015.6 |
| 20260510060414 | 53 | 45 | 7.0 | 10.0 | 0.00 | 0.00 | 0.00 | 93 | 1015.6 |
| 20260510055213 | 52 | 23 | 8.0 | 10.0 | 0.00 | 0.00 | 0.00 | 94 | 1015.6 |
| 20260510054012 | 52 | 54 | 4.0 | 7.0 | 0.00 | 0.00 | 0.00 | 95 | 1015.6 |
| 20260510052831 | 52 | 40 | 8.0 | 9.0 | 0.00 | 0.00 | 0.00 | 95 | 1015.6 |
| 20260510051609 | 51 | 23 | 4.0 | 7.0 | 0.00 | 0.00 | 0.00 | 95 | 1015.6 |
| 20260510050448 | 51 | 23 | 4.0 | 8.0 | 0.00 | 0.00 | 0.00 | 95 | 1015.6 |
| 20260510045207 | 51 | 41 | 4.0 | 6.0 | 0.00 | 0.00 | 0.00 | 95 | 1015.6 |
| 20260510044006 | 51 | 27 | 4.0 | 8.0 | 0.00 | 0.00 | 0.00 | 95 | 1015.6 |
| 20260510042805 | 51 | 23 | 5.0 | 8.0 | 0.00 | 0.00 | 0.00 | 95 | 1015.6 |
| 20260510041604 | 52 | 33 | 2.0 | 4.0 | 0.00 | 0.00 | 0.00 | 95 | 1015.6 |
| 20260510040402 | 52 | 14 | 3.0 | 9.0 | 0.00 | 0.00 | 0.00 | 94 | 1014.8 |
| 20260510035201 | 52 | 26 | 3.0 | 6.0 | 0.00 | 0.00 | 0.00 | 94 | 1015.6 |
| 20260510034040 | 52 | 23 | 4.0 | 5.0 | 0.00 | 0.00 | 0.00 | 94 | 1015.6 |
| 20260510032759 | 52 | 38 | 2.0 | 5.0 | 0.00 | 0.00 | 0.00 | 93 | 1015.6 |
| 20260510031558 | 52 | 41 | 4.0 | 6.0 | 0.00 | 0.00 | 0.00 | 93 | 1012.2 |
| 20260510030357 | 52 | 52 | 3.0 | 5.0 | 0.00 | 0.00 | 0.00 | 92 | 1015.6 |
| 20260510025155 | 53 | 33 | 2.0 | 4.0 | 0.00 | 0.00 | 0.00 | 92 | 1015.6 |
| 20260510023955 | 53 | 27 | 4.0 | 8.0 | 0.00 | 0.00 | 0.00 | 91 | 1015.6 |
| 20260510022754 | 52 | 13 | 3.0 | 7.0 | 0.00 | 0.00 | 0.00 | 91 | 1015.6 |
| 20260510021553 | 52 | 23 | 4.0 | 5.0 | 0.00 | 0.00 | 0.00 | 90 | 1015.6 |
| 20260510020352 | 53 | 30 | 4.0 | 7.0 | 0.00 | 0.00 | 0.00 | 89 | 1015.6 |
| 20260510015151 | 53 | 3 | 4.0 | 7.0 | 0.00 | 0.00 | 0.00 | 88 | 1015.6 |
| 20260510013949 | 53 | 23 | 5.0 | 7.0 | 0.00 | 0.00 | 0.00 | 87 | 1015.6 |
| 20260510012749 | 53 | 23 | 3.0 | 3.0 | 0.00 | 0.00 | 0.00 | 87 | 1015.6 |
| 20260510011547 | 53 | 40 | 2.0 | 3.0 | 0.00 | 0.00 | 0.00 | 86 | 1015.6 |
| 20260510010407 | 53 | 30 | 1.0 | 3.0 | 0.00 | 0.00 | 0.00 | 85 | 1015.6 |
| 20260510005145 | 53 | 19 | 3.0 | 5.0 | 0.00 | 0.00 | 0.00 | 84 | 1015.6 |
| 20260510004005 | 54 | 34 | 2.0 | 5.0 | 0.00 | 0.00 | 0.00 | 84 | 1015.6 |
| 20260510002743 | 53 | 23 | 3.0 | 6.0 | 0.00 | 0.00 | 0.00 | 82 | 1015.6 |
| 20260510001542 | 54 | 14 | 3.0 | 6.0 | 0.00 | 0.00 | 0.00 | 81 | 1015.6 |
| 20260510000342 | 54 | 16 | 2.0 | 4.0 | 0.00 | 0.00 | 0.00 | 80 | 1014.8 |
| 20260509235140 | 54 | 15 | 3.0 | 6.0 | 0.00 | 0.00 | 0.00 | 79 | 1015.6 |
| 20260509233939 | 54 | 23 | 2.0 | 3.0 | 0.00 | 0.00 | 0.00 | 78 | 1015.6 |
| 20260509232819 | 55 | 18 | 3.0 | 6.0 | 0.00 | 0.00 | 0.00 | 77 | 1015.6 |
| 20260509231537 | 55 | 34 | 1.0 | 3.0 | 0.00 | 0.00 | 0.00 | 76 | 1015.6 |
| 20260509230357 | 55 | 21 | 2.0 | 4.0 | 0.00 | 0.00 | 0.00 | 75 | 1015.6 |
| 20260509225135 | 56 | 40 | 3.0 | 4.0 | 0.00 | 0.00 | 0.00 | 75 | 1015.6 |
| 20260509223954 | 56 | 40 | 3.0 | 5.0 | 0.00 | 0.00 | 0.00 | 74 | 1015.6 |
| 20260509222733 | 56 | 45 | 3.0 | 4.0 | 0.00 | 0.00 | 0.00 | 74 | 1015.6 |
| 20260509221532 | 57 | 48 | 2.0 | 3.0 | 0.00 | 0.00 | 0.00 | 74 | 1015.6 |
| 20260509220330 | 57 | 34 | 1.0 | 3.0 | 0.00 | 0.00 | 0.00 | 74 | 1015.6 |
| 20260509215725 | 57 | 45 | 1.0 | 3.0 | 0.00 | 0.00 | 0.00 | 73 | 1015.6 |
| 20260509214523 | 58 | 23 | 3.0 | 6.0 | 0.00 | 0.00 | 0.00 | 73 | 1015.6 |